Lapse_Rate
7.2 7.0 7.1 7.4 7.3 7.1 6.8 7.0 6.9 7.0 7.2 7.3 7.5 7.4 7.4 7.9 8.0 7.9 8.0 8.0 8.0 8.1 8.6 8.6 8.5 8.3 8.2 8.3 8.2 8.3 8.1 8.0 7.8 8.0 8.3 8.3 8.3 8.1 8.2 8.0 7.9 8.0 7.9 8.0
6.6 6.9 7.1 7.0 6.9 6.9 6.8 7.0 6.9 7.0 7.1 7.3 7.3 7.6 7.5 7.6 7.9 8.1 8.1 8.0 8.0 8.1 8.3 8.6 8.6 8.3 8.0 8.2 8.2 8.4 8.3 8.1 8.1 8.1 8.2 8.2 8.2 8.1 8.0 8.0 8.0 8.0 7.9 7.9
7.1 7.0 7.2 6.8 6.9 7.0 6.9 6.9 7.0 7.0 7.0 7.2 6.7 7.3 7.8 7.6 7.6 7.8 7.8 7.7 7.7 7.8 7.8 8.0 8.1 8.1 8.1 7.9 8.1 8.3 8.4 8.3 8.0 7.9 7.7 7.7 7.7 8.0 8.1 8.5 8.6 8.5 8.3 8.1
6.7 6.6 6.7 6.9 7.1 6.9 6.4 7.0 6.6 6.4 6.5 6.8 6.5 6.5 7.0 7.2 7.5 7.8 7.8 7.6 7.2 7.2 7.3 7.3 7.6 7.8 7.9 8.0 8.1 8.1 8.3 8.3 8.3 8.2 7.7 7.6 7.4 7.5 8.1 8.1 8.1 8.2 8.2 8.0
7.0 7.0 6.8 6.8 6.8 6.6 6.3 6.2 6.6 6.6 6.5 6.3 6.4 6.2 5.4 6.6 7.1 7.6 7.4 7.4 7.4 7.3 7.4 7.5 7.4 7.5 7.6 7.7 7.9 8.0 8.0 8.1 8.2 8.3 8.3 7.9 7.8 7.8 7.8 7.8 7.9 8.1 8.2 8.3
6.4 6.3 6.6 6.7 6.6 6.6 6.1 6.0 6.2 6.4 6.4 6.2 6.4 6.2 4.8 6.8 6.9 6.7 6.7 6.8 7.1 7.1 6.9 7.0 7.1 7.4 7.6 7.5 7.4 7.5 7.7 7.6 7.8 7.6 7.9 8.3 8.2 8.1 8.1 8.1 8.2 8.3 8.3 8.2
6.1 6.1 6.1 6.2 6.3 6.2 6.2 6.1 6.6 6.6 6.4 6.6 6.7 6.1 5.8 6.6 6.6 6.5 6.7 6.6 6.8 7.0 7.2 7.2 7.4 7.4 7.4 7.5 7.7 7.7 7.7 7.5 7.3 7.7 7.8 7.8 8.1 8.1 8.1 8.1 8.2 8.4 8.6 8.6
5.8 5.8 5.9 5.8 5.9 5.9 6.0 6.1 6.5 6.6 6.9 6.9 6.3 5.9 6.0 6.7 6.2 6.4 6.3 6.3 6.1 6.2 6.3 6.5 6.6 6.8 7.1 7.3 7.4 7.5 7.6 7.5 7.4 7.2 7.4 7.8 7.8 8.0 8.0 7.9 8.2 8.5 8.8 9.0
5.5 5.5 5.5 5.5 5.7 5.8 5.7 6.1 6.3 6.3 6.2 6.2 6.3 6.0 6.5 6.9 6.4 5.9 6.1 6.0 6.0 6.0 6.0 5.9 6.1 6.7 7.0 6.9 7.0 7.1 7.3 7.3 7.2 7.1 7.2 7.3 7.5 7.7 7.9 7.9 8.0 8.2 8.8 9.2
5.4 5.7 5.6 5.6 5.7 5.8 6.0 6.1 6.1 6.2 6.2 6.1 6.4 6.0 6.2 6.9 6.6 6.4 6.0 6.3 6.2 5.7 5.8 5.9 5.9 5.9 6.2 6.5 6.8 6.9 6.8 6.8 7.0 6.9 6.7 6.7 7.0 7.3 7.6 7.6 7.9 8.0 8.5 9.0
5.3 5.5 5.6 5.8 5.7 5.7 5.8 5.9 5.9 6.0 5.9 6.2 6.3 6.5 6.3 6.2 6.2 6.1 6.1 6.0 6.1 6.2 6.3 6.4 6.5 6.4 6.0 6.3 6.5 6.7 6.9 7.0 7.1 7.1 7.1 7.0 7.0 7.0 7.4 7.6 7.6 7.8 8.2 8.6
5.3 5.0 5.3 5.8 5.7 5.7 5.7 5.9 6.0 5.9 5.8 5.7 5.4 5.6 5.8 5.9 6.1 6.2 6.2 6.3 6.3 6.3 6.4 6.5 6.4 6.5 6.5 6.5 6.6 6.5 6.8 7.0 7.0 7.2 7.1 7.3 7.4 7.2 7.6 7.8 7.8 7.9 8.4 8.7
4.8 4.2 4.6 5.2 5.3 5.4 5.4 5.4 5.6 5.6 5.6 5.1 6.1 5.8 6.3 6.2 6.2 6.5 6.4 6.0 5.7 5.9 6.0 6.2 6.4 6.4 6.6 6.6 6.6 6.7 6.7 6.9 6.9 6.9 7.0 6.9 7.4 7.5 7.9 8.0 7.9 8.1 8.4 8.7
4.4 4.3 4.6 4.9 5.1 5.2 5.2 5.0 5.1 5.1 4.8 5.2 5.1 5.5 6.9 6.3 6.6 6.2 6.0 6.3 5.9 5.4 5.6 5.7 5.7 5.8 6.0 6.3 6.5 6.7 6.9 6.9 6.8 6.8 6.7 6.7 7.0 7.5 7.8 8.1 8.2 8.2 8.3 8.4
4.0 3.8 4.0 4.0 4.1 4.4 4.4 4.7 5.3 4.9 5.0 4.9 5.5 5.2 5.8 6.0 6.0 6.2 5.9 5.8 5.6 5.5 5.6 5.7 5.8 5.6 5.7 6.0 6.3 6.5 6.6 6.8 7.0 7.1 6.9 6.8 6.7 6.9 7.2 7.7 8.0 7.9 7.6 7.7
3.5 3.6 3.6 3.5 4.3 4.3 4.1 4.1 4.5 4.9 5.3 5.4 5.9 5.4 6.3 6.0 6.0 5.8 5.5 5.8 5.6 5.8 6.0 5.9 5.8 5.6 5.2 5.4 6.0 6.3 6.5 6.6 6.8 7.1 7.2 7.0 7.0 6.9 7.0 6.9 7.0 6.7 7.4 7.6
3.8 3.4 3.8 3.9 4.2 3.9 3.8 5.2 5.4 5.6 5.7 5.8 5.4 6.5 6.6 6.1 5.7 5.6 5.7 5.3 5.9 6.2 6.1 6.1 5.9 5.7 5.4 5.7 5.7 5.9 6.1 6.1 6.2 6.5 6.8 7.2 7.1 7.2 7.1 6.6 6.9 6.9 6.7 7.0
4.5 4.3 4.1 4.0 4.3 4.0 4.9 4.9 5.2 5.2 5.5 6.1 6.6 6.7 6.3 6.1 6.0 5.8 6.4 6.5 6.3 6.3 6.5 6.6 6.0 5.8 5.8 5.9 6.0 6.0 6.1 6.2 6.2 6.3 6.4 6.6 7.2 7.1 7.4 6.9 6.4 6.7 6.7 6.8
5.3 5.1 4.4 4.5 4.5 4.7 5.0 5.5 5.8 6.4 5.5 7.1 7.4 6.8 6.8 7.0 6.8 5.9 6.8 7.0 6.9 6.8 6.3 6.4 6.4 6.3 6.4 6.3 6.3 6.3 6.4 6.5 6.6 6.5 6.6 6.5 6.4 7.2 7.1 6.6 6.3 6.3 6.6 6.4
5.7 5.4 4.7 4.9 4.9 4.7 5.6 5.7 6.6 6.6 5.4 7.7 7.1 7.3 7.4 7.4 7.2 6.5 7.3 7.5 7.4 7.5 7.4 7.4 7.1 7.2 7.4 7.4 7.3 7.1 7.0 6.8 6.9 6.7 6.7 6.7 6.7 6.5 6.6 6.5 6.6 6.2 5.8 6.1
5.5 5.4 5.0 5.1 5.3 4.8 5.3 6.5 5.8 6.2 6.7 7.0 7.8 7.6 7.7 7.7 7.7 7.3 7.6 8.2 7.9 7.7 7.7 7.6 7.3 7.2 7.6 7.6 7.8 7.9 7.9 7.9 7.5 7.2 6.9 6.8 6.8 6.7 6.6 6.3 6.1 5.9 5.5 6.2
5.7 5.7 5.2 5.4 5.5 5.5 6.5 6.2 6.4 7.1 7.2 7.0 6.9 7.0 7.0 7.0 7.2 7.5 7.6 7.6 7.9 7.8 7.5 7.4 7.3 7.6 7.8 8.0 8.1 8.1 8.2 8.0 8.1 8.0 7.4 7.0 7.0 7.0 6.9 6.5 6.1 6.5 6.0 5.4
5.1 6.0 6.5 6.6 6.4 6.6 6.6 6.8 6.9 7.2 7.0 6.6 6.8 7.1 6.9 6.9 7.2 7.4 7.4 7.4 7.4 7.5 7.7 7.7 7.4 7.5 7.9 8.0 8.0 8.0 8.2 8.1 8.0 8.2 8.3 7.5 7.0 7.1 7.1 6.9 6.0 6.3 6.6 6.4
5.7 6.5 6.2 5.6 6.4 6.9 6.7 6.9 7.1 7.2 7.0 6.9 7.1 7.3 7.1 7.0 7.3 7.4 7.6 7.5 7.5 7.5 7.5 7.4 7.4 7.5 7.8 7.9 8.0 8.0 8.0 8.1 8.1 8.2 8.2 8.0 7.1 7.1 7.3 7.2 6.9 7.0 6.8 6.6
6.7 6.6 6.8 6.0 7.2 7.1 7.3 7.3 7.6 7.5 7.3 7.4 7.4 7.3 7.4 7.4 7.6 7.7 7.7 7.5 7.3 7.5 7.5 7.7 7.7 7.7 7.8 7.9 8.1 8.1 7.9 8.0 8.1 8.1 7.9 7.6 7.2 6.8 7.0 6.8 7.0 7.2 7.0 6.9
7.7 7.2 6.6 6.9 7.2 6.7 7.3 7.5 7.4 7.2 7.6 7.6 7.4 7.6 7.7 7.4 7.5 7.7 7.8 7.8 7.7 7.7 7.5 7.5 7.7 7.8 8.1 8.0 8.1 8.0 7.9 7.8 7.7 7.8 7.6 7.2 7.1 6.7 6.4 6.7 6.6 6.5 6.5 6.9
Wind_Speed
3 5 9 10 9 7 5 6 7 1 2 8 12 19 14 20 17 13 11 9 11 14 17 13 12 12 13 14 17 20 19 18 14 13 13 12 13 12 12 11 20 22 22 23
4 11 6 5 9 10 10 11 14 8 4 4 7 25 20 16 17 15 12 10 9 8 12 12 11 9 11 14 17 18 20 19 17 13 12 11 11 11 12 12 15 23 22 22
11 4 2 11 8 9 11 15 11 11 5 6 9 18 19 3 6 6 4 8 9 8 10 11 13 13 10 11 13 15 19 18 18 17 11 10 9 9 11 14 13 15 22 23
6 4 6 3 2 7 9 7 11 7 3 7 1 12 20 13 11 1 5 6 5 10 10 10 12 14 14 13 10 11 14 16 15 17 15 19 14 14 14 13 13 13 18 18
3 3 3 4 6 11 6 2 6 6 4 5 6 6 11 4 15 14 4 6 11 11 11 14 14 12 13 13 12 9 9 13 14 16 19 15 18 15 12 11 16 17 15 19
2 2 1 3 2 5 2 4 2 1 4 8 10 8 27 11 9 2 6 12 13 14 15 15 14 14 13 12 12 12 13 9 13 16 18 21 21 19 14 16 13 13 12 12
1 1 1 1 3 1 2 3 2 4 5 7 7 11 19 6 13 6 10 11 12 13 13 14 18 17 15 14 13 11 13 15 10 14 17 20 23 21 21 19 15 15 12 11
5 3 1 1 7 5 6 8 4 6 5 3 2 11 6 3 11 9 10 9 14 18 16 17 17 15 16 16 14 12 14 14 15 13 15 17 20 15 15 18 16 14 14 13
2 3 3 5 2 1 4 5 3 3 1 5 6 13 19 18 5 11 11 14 17 18 19 18 18 13 13 16 16 14 15 14 14 15 14 16 17 20 19 21 18 14 15 12
2 1 3 3 0 7 2 2 3 1 4 5 4 9 12 7 9 11 14 15 18 20 21 19 17 15 11 12 14 14 14 15 15 15 14 14 18 19 20 19 20 18 15 14
5 2 1 2 3 3 4 1 1 1 3 3 5 8 2 8 7 11 13 15 17 20 20 18 18 17 15 13 12 12 13 16 17 17 16 15 16 18 18 18 18 17 15 12
4 2 1 2 7 3 3 3 2 4 4 2 3 13 7 6 7 15 16 18 18 19 19 18 17 15 15 15 15 14 12 14 16 17 17 16 16 13 14 15 16 14 14 12
3 1 1 2 1 2 2 2 2 5 1 6 6 12 5 15 21 21 22 21 18 18 19 18 16 15 14 14 14 16 14 15 15 17 18 18 15 12 13 13 12 8 10 13
4 3 5 6 2 2 5 3 4 3 3 6 13 25 32 18 22 24 25 22 19 17 18 17 15 15 13 12 14 16 15 15 16 16 18 19 16 12 11 10 8 12 12 13
1 3 5 6 8 11 14 15 16 14 12 12 16 25 30 25 26 26 24 22 20 17 18 17 17 16 14 14 14 15 16 15 16 17 17 18 18 13 4 7 10 12 13 12
5 2 3 11 13 17 20 17 18 21 22 26 25 31 26 32 24 23 22 21 21 20 19 20 20 16 14 15 16 14 14 15 15 16 17 17 17 12 5 6 8 8 9 11
2 2 4 5 3 11 15 22 23 18 21 22 22 28 27 25 24 23 23 20 22 23 22 21 20 13 12 17 16 17 16 14 15 15 17 16 16 13 6 4 3 8 9 10
7 7 2 4 7 7 2 3 4 13 19 20 23 26 26 25 24 25 22 21 21 20 20 18 11 14 17 19 17 16 16 15 15 16 15 15 14 13 6 8 7 6 7 11
15 9 4 3 6 16 18 9 6 9 18 18 23 22 23 23 23 24 18 14 17 17 17 13 17 18 17 18 19 17 16 17 15 16 16 15 14 11 7 8 9 9 8 8
11 12 6 5 5 7 3 2 8 7 14 10 12 14 15 16 13 18 19 17 20 22 19 19 20 19 18 17 18 16 17 16 17 17 17 16 14 14 12 12 12 11 9 7
5 4 12 11 8 12 7 6 2 10 13 8 4 12 19 18 17 24 24 26 21 20 22 20 20 18 19 17 16 16 17 17 16 15 16 17 17 15 15 14 9 11 12 10
7 6 5 6 6 13 8 5 7 7 6 14 21 21 20 20 21 24 24 23 24 24 22 21 18 18 19 17 14 17 18 16 15 16 17 18 17 13 10 12 10 11 13 13
4 6 4 9 5 8 7 11 14 16 17 22 21 24 21 20 22 23 24 22 22 23 20 18 17 18 18 17 14 17 18 16 15 16 17 18 16 15 9 12 12 10 11 11
5 7 8 7 13 24 22 20 20 20 22 22 19 20 22 21 24 24 22 20 19 19 19 18 18 19 19 17 15 15 16 15 14 16 15 14 13 10 6 7 9 11 11 10
9 4 11 17 19 21 21 17 18 21 19 21 22 21 23 21 24 22 22 21 19 19 18 16 16 16 19 17 16 15 15 13 14 13 13 12 7 5 5 5 8 10 13 15
11 12 7 11 15 15 23 20 19 22 24 22 21 22 22 20 21 23 22 21 19 19 18 16 16 16 17 16 14 14 12 11 12 12 9 7 3 1 1 3 4 11 8 12
Wind_Direction
160 207 214 190 207 234 265 263 274 236 258 314 282 279 270 287 293 284 273 249 257 262 275 284 281 276 254 230 218 217 214 210 198 204 207 214 218 218 225 224 219 218 215 211
192 239 215 176 207 227 242 262 263 276 232 211 302 293 282 257 271 277 284 287 268 283 294 308 327 306 274 248 227 222 219 212 210 210 215 220 219 228 225 222 224 221 219 214
204 169 112 204 196 211 232 231 237 252 309 276 278 278 285 251 255 290 291 282 288 283 317 338 350 341 321 292 260 235 228 221 214 214 213 218 228 228 224 224 225 222 218 216
238 226 236 241 144 191 250 226 235 236 244 259 24 283 275 291 271 275 309 264 321 356 9 1 2 357 350 344 324 278 245 232 221 206 210 214 219 225 226 227 225 220 218 222
173 142 106 212 236 202 255 77 171 165 206 285 217 258 287 248 286 299 279 38 21 18 15 6 4 2 352 348 343 327 295 244 225 211 213 217 223 232 230 226 227 217 214 215
104 108 109 185 158 149 85 92 92 171 224 249 219 216 275 272 285 14 57 38 20 11 13 9 4 357 352 342 337 332 328 302 243 222 219 223 228 230 229 226 225 222 215 211
16 169 179 185 230 121 153 109 172 209 204 266 188 213 257 286 333 4 65 37 26 17 10 1 358 354 351 340 330 322 321 313 301 243 230 228 232 231 233 234 230 223 217 213
176 138 7 121 222 208 187 204 204 239 222 270 201 244 253 118 101 87 58 37 26 15 1 350 351 346 343 338 330 317 312 305 300 282 254 242 239 239 236 236 234 231 227 220
129 112 314 36 2 183 151 175 186 242 229 271 233 263 277 269 342 44 32 21 10 2 352 340 336 337 335 336 332 323 312 305 293 286 282 268 254 243 239 237 235 233 229 226
20 175 16 329 171 43 72 124 139 128 233 238 248 259 244 288 53 30 12 1 354 346 341 334 331 328 325 328 326 325 317 310 302 287 278 277 270 256 246 240 234 229 224 216
12 30 327 301 43 54 359 54 75 216 195 254 289 257 202 122 75 13 347 344 340 335 328 323 321 325 325 328 330 329 328 326 321 315 299 286 271 260 245 239 237 230 218 191
12 58 312 280 298 323 236 256 209 221 225 239 273 268 103 134 331 338 332 331 327 317 315 312 311 310 316 324 325 328 329 329 325 319 313 300 286 261 242 239 237 230 208 172
16 79 108 253 172 66 100 138 110 96 62 227 244 259 190 314 327 323 316 318 313 308 309 306 302 304 314 319 322 326 329 327 326 324 321 313 300 257 238 232 227 203 173 171
182 185 213 240 317 9 274 265 287 258 237 274 244 284 278 294 301 299 301 301 308 303 302 301 298 302 309 314 319 325 326 327 328 329 323 317 315 279 236 228 180 168 172 178
125 244 222 243 283 284 270 265 272 256 252 249 270 269 282 292 288 288 298 303 303 305 306 298 297 304 309 317 322 323 324 324 327 330 329 320 315 301 240 178 181 183 180 181
11 283 291 280 268 255 259 258 247 243 249 257 262 266 273 276 284 289 291 297 305 304 298 294 288 297 307 315 316 317 318 319 322 325 330 328 314 296 267 248 181 181 166 166
272 264 289 278 283 306 280 241 233 241 238 241 253 256 269 281 289 290 293 303 298 296 299 294 292 285 303 316 308 308 313 311 313 319 326 331 320 299 250 232 184 162 160 157
215 207 232 283 296 256 308 71 192 225 239 239 246 256 265 277 287 288 291 296 291 295 297 296 291 297 303 308 296 301 306 306 307 311 317 321 320 301 236 203 192 163 162 168
211 203 235 254 237 283 283 269 179 216 259 244 244 261 276 282 289 287 291 278 280 294 296 292 300 297 294 294 288 296 301 301 303 303 308 311 310 291 226 204 195 171 163 178
195 214 211 193 251 264 111 201 262 255 277 278 263 257 273 299 292 288 306 309 307 301 288 298 299 295 290 286 286 291 295 298 298 303 301 302 296 291 241 210 191 176 172 188
160 198 222 236 251 268 277 273 341 265 280 291 282 306 307 297 283 290 300 305 307 297 293 293 297 290 288 287 286 282 290 292 293 297 296 295 290 281 262 230 198 163 168 153
197 183 206 221 240 265 235 277 217 254 270 299 312 302 298 291 287 288 292 297 301 299 296 294 291 288 289 290 284 281 288 290 295 294 295 290 289 285 256 207 189 186 172 171
236 212 215 214 224 262 255 268 280 291 289 296 300 297 297 294 290 289 292 293 296 295 293 292 289 288 287 289 280 283 283 294 300 295 292 290 296 286 241 202 181 173 176 165
236 235 241 268 246 264 279 290 291 288 290 291 287 289 294 291 290 288 288 292 290 289 287 288 284 285 285 291 287 279 286 298 293 290 286 288 291 278 216 192 184 171 171 166
236 229 254 264 275 278 271 275 285 293 294 288 290 289 286 288 287 285 287 288 286 284 285 282 279 278 279 289 290 292 299 300 290 290 286 288 276 235 209 192 186 182 187 173
223 242 230 260 271 276 285 292 293 295 295 294 294 296 290 290 287 291 289 287 283 281 283 281 277 277 282 290 294 306 304 300 296 293 289 279 246 259 65 131 77 50 101 107